FW9917 Weather Reports


time (UTC)temp
C
wind
direction
speed
KPH
gust
KPH
rain 1hr
cm
rain 24hr
cm
rain mn
cm
humidity
%
barometer
mb
20260506025556 8 0 0.0 3.2 0.00 1.30 0.81 83 1016.6
20260506025056 8 84 0.0 3.2 0.00 1.30 0.81 83 1016.6
20260506024555 8 0 0.0 1.6 0.00 1.30 0.81 83 1016.5
20260506024056 8 0 0.0 3.2 0.00 1.30 0.81 81 1016.3
20260506023555 9 0 0.0 3.2 0.00 1.30 0.81 81 1016.4
20260506023059 9 84 0.0 1.6 0.00 1.30 0.81 80 1016.4
20260506022558 10 0 0.0 0.0 0.00 1.30 0.81 79 1016.3
20260506022056 10 0 0.0 0.0 0.00 1.30 0.81 79 1016.3
20260506021607 10 0 0.0 3.2 0.00 1.30 0.81 78 1016.2
20260506021056 10 0 0.0 3.2 0.00 1.30 0.81 77 1016.2
20260506020556 11 349 0.0 0.0 0.00 1.30 0.81 74 1016.2
20260506020056 11 0 0.0 0.0 0.00 1.30 0.81 71 1016.1
20260506015556 11 0 0.0 0.0 0.00 1.47 0.81 71 1016.2
20260506015058 11 0 0.0 3.2 0.00 1.47 0.81 71 1016.1
20260506014602 11 0 0.0 3.2 0.00 1.47 0.81 71 1016.0
20260506014056 11 0 0.0 3.2 0.00 1.47 0.81 69 1016.0
20260506013554 12 0 0.0 4.8 0.00 1.47 0.81 68 1015.9
20260506013058 12 0 0.0 4.8 0.00 1.47 0.81 66 1015.8
20260506012556 12 15 1.6 6.4 0.00 1.47 0.81 62 1015.8
20260506012057 12 14 0.0 6.4 0.00 1.47 0.81 62 1015.7
20260506011558 12 14 1.6 6.4 0.00 1.47 0.81 64 1015.7
20260506011056 12 0 0.0 4.8 0.00 1.47 0.81 66 1015.6
20260506010557 12 0 0.0 4.8 0.00 1.47 0.81 64 1015.6
20260506010100 12 13 0.0 3.2 0.00 1.47 0.81 63 1015.5
20260506005557 12 0 0.0 4.8 0.00 1.80 0.81 63 1015.6
20260506005056 12 0 0.0 4.8 0.00 1.80 0.81 64 1015.6
20260506004626 12 14 1.6 4.8 0.00 1.80 0.81 67 1015.6
20260506004055 12 14 1.6 4.8 0.00 1.80 0.81 62 1015.6
20260506003556 12 14 1.6 4.8 0.00 1.80 0.81 66 1015.6
20260506003100 13 15 0.0 4.8 0.00 1.80 0.81 63 1015.6
20260506002556 13 14 0.0 6.4 0.00 1.80 0.81 61 1015.7
20260506002059 13 14 1.6 8.0 0.00 1.80 0.81 62 1015.8
20260506001556 13 0 1.6 8.0 0.00 1.80 0.81 63 1015.7
20260506001055 13 15 1.6 6.4 0.00 1.80 0.81 61 1015.6
20260506000556 13 14 0.0 6.4 0.00 1.80 0.81 64 1015.6
20260506000057 13 16 1.6 11.3 0.00 1.80 0.81 62 1015.5
20260505235558 13 14 0.0 11.3 0.00 1.88 0.81 64 1015.6
20260505235056 13 0 1.6 8.0 0.00 1.88 0.81 66 1015.6
20260505234615 13 0 3.2 8.0 0.00 1.88 0.81 65 1015.5
20260505234055 13 14 0.0 8.0 0.00 1.88 0.81 66 1015.5
20260505233556 13 15 1.6 6.4 0.00 1.88 0.81 65 1015.5
20260505233057 13 16 1.6 6.4 0.00 1.88 0.81 66 1015.5
20260505232556 13 14 0.0 11.3 0.00 1.88 0.81 66 1015.5
20260505232056 13 15 0.0 11.3 0.00 1.88 0.81 65 1015.6
20260505231558 13 15 3.2 8.0 0.00 1.88 0.81 66 1015.6
20260505231056 13 0 1.6 6.4 0.00 1.88 0.81 68 1015.6
20260505230556 13 14 0.0 6.4 0.00 1.88 0.81 71 1015.6
20260505230055 12 15 1.6 9.7 0.00 1.88 0.81 71 1015.7
20260505225556 12 16 1.6 11.3 0.00 2.16 0.81 72 1015.8
20260505225056 12 13 1.6 11.3 0.00 2.16 0.81 68 1015.8
20260505224555 12 15 1.6 8.0 0.00 2.16 0.81 69 1015.8
20260505224055 12 0 1.6 6.4 0.00 2.16 0.81 70 1015.8
20260505223555 12 14 1.6 8.0 0.00 2.16 0.81 69 1015.9
20260505223103 12 15 1.6 8.0 0.00 2.16 0.81 72 1015.8
20260505222556 12 15 1.6 11.3 0.00 2.16 0.81 74 1015.8
20260505222057 12 15 1.6 11.3 0.00 2.16 0.81 77 1015.8
20260505221608 11 15 0.0 4.8 0.00 2.16 0.81 80 1015.8
20260505221056 11 0 1.6 8.0 0.00 2.16 0.81 74 1015.9
20260505220600 11 15 1.6 8.0 0.00 2.16 0.81 76 1015.9
20260505220138 11 16 1.6 6.4 0.00 2.16 0.81 75 1015.9
20260505215557 11 15 0.0 8.0 0.00 2.34 0.81 79 1016.0
20260505215056 11 15 1.6 8.0 0.00 2.34 0.81 79 1015.8
20260505214616 10 15 0.0 4.8 0.00 2.34 0.81 83 1015.9
20260505214055 10 15 0.0 4.8 0.00 2.34 0.81 85 1016.0
20260505213558 9 0 0.0 4.8 0.00 2.34 0.81 86 1016.0
20260505213056 9 15 1.6 4.8 0.00 2.34 0.81 84 1016.0
20260505212558 9 0 0.0 3.2 0.00 2.34 0.81 83 1016.3
20260505212056 9 0 0.0 3.2 0.00 2.34 0.81 82 1016.2
20260505211613 9 0 0.0 3.2 0.00 2.34 0.81 85 1016.4
20260505211056 9 13 0.0 3.2 0.00 2.34 0.81 84 1016.3
20260505210557 9 0 0.0 4.8 0.00 2.34 0.81 85 1016.2
20260505210058 9 5 0.0 6.4 0.00 2.34 0.81 88 1016.2
20260505205557 9 0 1.6 6.4 0.00 2.57 0.81 89 1016.2
20260505205056 9 13 1.6 4.8 0.00 2.57 0.81 85 1016.2
20260505204558 9 0 0.0 4.8 0.00 2.57 0.81 89 1016.1
20260505204056 8 0 0.0 3.2 0.00 2.57 0.81 93 1016.1
20260505203556 8 0 0.0 3.2 0.00 2.57 0.81 89 1016.1
20260505203059 8 0 0.0 4.8 0.00 2.57 0.81 91 1016.1
20260505202556 8 15 0.0 4.8 0.00 2.57 0.81 92 1016.0
20260505202100 7 15 0.0 3.2 0.00 2.57 0.81 91 1016.1
20260505201607 7 15 0.0 3.2 0.00 2.57 0.81 90 1016.0
20260505201056 7 0 0.0 3.2 0.00 2.57 0.81 92 1016.3
20260505200557 7 0 0.0 3.2 0.00 2.57 0.81 91 1016.2
20260505200104 7 0 0.0 4.8 0.00 2.57 0.81 90 1016.2
20260505195555 7 0 1.6 4.8 0.00 2.79 0.81 92 1016.1
20260505195056 7 13 0.0 3.2 0.00 2.79 0.81 94 1016.2
20260505194606 7 0 0.0 3.2 0.00 2.79 0.81 94 1016.2
20260505194057 6 0 0.0 3.2 0.00 2.79 0.81 94 1016.0
20260505193556 6 175 0.0 3.2 0.00 2.79 0.81 94 1016.0
20260505193056 6 0 0.0 4.8 0.00 2.79 0.81 93 1016.0
20260505192556 6 0 0.0 4.8 0.00 2.79 0.81 92 1016.0
20260505192100 6 0 0.0 3.2 0.00 2.79 0.81 94 1016.0
20260505191557 6 0 0.0 3.2 0.00 2.79 0.81 94 1016.0
20260505191056 6 0 0.0 3.2 0.00 2.79 0.81 94 1016.0
20260505190557 6 0 0.0 3.2 0.00 2.79 0.81 95 1015.9
20260505190107 6 0 0.0 3.2 0.00 2.79 0.81 95 1016.0
20260505185557 6 261 0.0 3.2 0.00 2.79 0.81 95 1015.9
20260505185058 6 0 0.0 3.2 0.00 2.79 0.81 95 1015.8
20260505184600 6 0 0.0 0.0 0.00 2.79 0.81 97 1015.8
20260505184057 6 0 0.0 0.0 0.00 2.79 0.81 96 1015.8
20260505183616 5 0 0.0 0.0 0.00 2.79 0.81 95 1015.7
20260505183059 5 0 0.0 0.0 0.00 2.79 0.81 96 1015.7
20260505182556 5 0 0.0 0.0 0.00 2.79 0.81 96 1015.7
20260505182056 5 0 0.0 0.0 0.00 2.79 0.81 97 1015.7
20260505181556 5 0 0.0 0.0 0.00 2.79 0.81 97 1015.7
20260505181056 5 0 0.0 0.0 0.00 2.79 0.81 97 1015.7
20260505180556 5 0 0.0 0.0 0.00 2.79 0.81 97 1015.7
20260505175556 5 0 0.0 0.0 0.00 2.79 0.81 98 1015.5
20260505175056 5 0 0.0 0.0 0.00 2.79 0.81 98 1015.4
20260505174555 5 0 0.0 0.0 0.00 2.79 0.81 98 1015.4
20260505174056 5 0 0.0 0.0 0.00 2.79 0.81 98 1015.4
20260505173555 5 0 0.0 4.8 0.00 2.79 0.81 98 1015.2
20260505173058 5 0 0.0 4.8 0.00 2.79 0.81 98 1015.2
20260505172556 5 0 0.0 4.8 0.00 2.79 0.81 98 1015.0
20260505172056 4 0 0.0 1.6 0.00 2.79 0.81 98 1015.0
20260505171554 4 0 0.0 1.6 0.00 2.79 0.81 98 1015.0
20260505171057 4 0 0.0 1.6 0.00 2.79 0.81 98 1015.0
20260505170556 4 0 0.0 0.0 0.00 2.79 0.81 98 1015.0
20260505170101 4 0 0.0 0.0 0.00 2.79 0.81 98 1015.0
20260505165556 3 0 0.0 0.0 0.00 2.79 0.81 98 1014.9
20260505165056 3 0 0.0 0.0 0.00 2.79 0.81 98 1014.8
20260505164623 3 0 0.0 0.0 0.00 2.79 0.81 98 1014.9
20260505164057 3 0 0.0 0.0 0.00 2.79 0.81 98 1014.8
20260505163556 3 0 0.0 1.6 0.00 2.79 0.81 98 1014.8
20260505163059 3 0 0.0 1.6 0.00 2.79 0.81 98 1014.6
20260505162556 3 0 0.0 1.6 0.00 2.79 0.81 98 1014.6
20260505162056 3 0 0.0 1.6 0.00 2.79 0.81 98 1014.6
20260505161602 3 0 0.0 0.0 0.00 2.79 0.81 98 1014.6
20260505161057 3 0 0.0 1.6 0.00 2.79 0.81 98 1014.5
20260505160559 3 0 0.0 1.6 0.00 2.79 0.81 98 1014.5
20260505160109 3 0 0.0 1.6 0.00 2.79 0.81 98 1014.5
20260505153100 2 0 0.0 1.6 0.03 2.79 0.81 98 1014.1
20260505152558 2 0 0.0 1.6 0.03 2.79 0.81 98 1014.0
20260505152056 2 0 0.0 1.6 0.03 2.79 0.81 98 1014.0
20260505151558 2 0 0.0 1.6 0.03 2.79 0.81 98 1013.9
20260505151056 2 0 0.0 1.6 0.03 2.79 0.81 98 1013.9
20260505150556 2 0 0.0 1.6 0.03 2.79 0.81 98 1013.9
20260505140557 1 124 0.0 1.6 0.05 2.77 0.79 98 1013.4
20260505140117 1 0 0.0 1.6 0.05 2.77 0.79 98 1013.4
20260505124604 1 0 0.0 3.2 0.05 2.72 0.74 98 1012.9
20260505124057 1 0 0.0 3.2 0.03 2.67 0.71 98 1012.9
20260505123558 1 0 0.0 1.6 0.03 2.67 0.71 98 1012.9
20260505123058 1 0 0.0 1.6 0.03 2.67 0.71 98 1012.8
20260505122559 1 0 0.0 1.6 0.03 2.67 0.71 98 1012.9
20260505122057 1 0 0.0 1.6 0.05 2.67 0.71 98 1012.9
20260505121619 1 0 0.0 1.6 0.05 2.67 0.71 98 1012.9
20260505121057 1 0 0.0 1.6 0.05 2.67 0.71 98 1012.8
20260505120557 1 0 0.0 1.6 0.03 2.64 0.69 98 1012.8
20260505120110 1 0 0.0 1.6 0.03 2.64 0.69 98 1012.9
20260505115559 1 0 0.0 1.6 0.03 2.64 0.69 98 1012.9
20260505115056 1 0 0.0 1.6 0.03 2.64 0.69 98 1012.7
20260505114556 1 0 0.0 1.6 0.05 2.64 0.69 98 1012.8
20260505114056 1 0 0.0 1.6 0.05 2.64 0.69 98 1012.7
20260505113556 1 0 0.0 1.6 0.05 2.64 0.69 98 1012.8
20260505113057 1 0 0.0 1.6 0.05 2.64 0.69 97 1012.8
20260505112556 1 0 0.0 1.6 0.05 2.64 0.69 98 1012.9
20260505112056 1 0 0.0 1.6 0.03 2.64 0.66 98 1012.8
20260505111559 1 0 0.0 1.6 0.05 2.64 0.66 98 1012.9
20260505111057 1 0 0.0 1.6 0.05 2.64 0.66 98 1013.0
20260505110557 1 174 0.0 0.0 0.05 2.64 0.66 98 1012.9
20260505110104 1 0 0.0 0.0 0.05 2.64 0.66 98 1012.9
20260505102056 1 0 0.0 1.6 0.08 2.62 0.64 98 1013.2
20260505101555 1 0 0.0 1.6 0.08 2.59 0.61 98 1013.2
20260505101056 1 0 0.0 1.6 0.08 2.59 0.61 98 1013.1
20260505100556 1 0 0.0 4.8 0.08 2.59 0.61 98 1013.2
20260505100056 1 0 0.0 4.8 0.10 2.59 0.61 98 1013.3
20260505095556 1 0 0.0 1.6 0.13 2.59 0.61 97 1013.4
20260505095056 1 0 0.0 3.2 0.13 2.57 0.58 97 1013.3
20260505094555 1 0 0.0 3.2 0.15 2.57 0.58 97 1013.5
20260505094056 1 0 0.0 3.2 0.15 2.57 0.58 97 1013.4
20260505093556 1 119 0.0 1.6 0.15 2.54 0.56 97 1013.2
20260505093056 1 0 0.0 0.0 0.15 2.54 0.56 97 1013.4
20260505092558 1 0 0.0 1.6 0.15 2.54 0.56 97 1013.3
20260505092056 1 0 0.0 1.6 0.15 2.54 0.56 97 1013.5
20260505091609 1 0 0.0 1.6 0.15 2.51 0.53 97 1013.4
20260505091056 1 0 0.0 1.6 0.15 2.51 0.53 97 1013.4
20260505090556 1 0 0.0 1.6 0.15 2.51 0.53 97 1013.5
20260505090056 1 0 0.0 1.6 0.13 2.49 0.51 97 1013.6
20260505085556 1 0 0.0 1.6 0.13 2.46 0.48 97 1013.7
20260505085056 1 0 0.0 1.6 0.10 2.44 0.46 97 1013.8
20260505084555 1 0 0.0 1.6 0.10 2.41 0.43 97 1013.8
20260505084055 1 0 0.0 1.6 0.13 2.39 0.41 97 1013.6
20260505083555 1 0 0.0 1.6 0.18 2.39 0.41 97 1013.8
20260505083058 1 0 0.0 0.0 0.23 2.39 0.41 97 1013.9
20260505082556 1 0 0.0 1.6 0.28 2.39 0.41 97 1013.7
20260505082057 1 0 0.0 1.6 0.33 2.39 0.41 97 1013.9
20260505081600 1 0 0.0 1.6 0.36 2.36 0.38 97 1013.8
20260505081057 1 0 0.0 1.6 0.36 2.36 0.38 97 1013.8
20260505080557 1 0 0.0 1.6 0.38 2.36 0.38 97 1013.9
20260505080106 1 0 0.0 1.6 0.38 2.36 0.38 97 1013.9
20260505075556 1 0 0.0 1.6 0.38 2.34 0.36 97 1013.9
20260505075056 1 0 0.0 1.6 0.38 2.34 0.36 97 1014.0
20260505074559 1 0 0.0 1.6 0.38 2.31 0.33 97 1013.8
20260505074056 1 139 0.0 1.6 0.33 2.26 0.28 97 1013.8
20260505073556 1 0 0.0 1.6 0.30 2.21 0.23 97 1014.0
20260505073105 1 0 0.0 1.6 0.25 2.16 0.18 97 1014.1
20260505072556 1 0 0.0 3.2 0.23 2.11 0.13 97 1014.0
20260505072056 1 149 0.0 3.2 0.18 2.06 0.08 97 1013.9
20260505071556 1 0 0.0 3.2 0.13 2.01 0.03 97 1014.1
20260505071057 1 0 0.0 1.6 0.13 2.01 0.03 97 1014.1
20260505070556 1 0 0.0 1.6 0.13 1.98 0.00 97 1013.9
20260505070058 1 149 0.0 1.6 0.13 1.98 0.00 97 1013.9
20260505065556 1 0 0.0 1.6 0.10 1.96 1.96 97 1013.8
20260505065057 1 0 0.0 1.6 0.13 1.96 1.96 97 1013.7
20260505064606 1 0 0.0 1.6 0.10 1.93 1.93 97 1014.0
20260505064056 1 0 0.0 1.6 0.10 1.93 1.93 97 1014.0
20260505063556 1 0 0.0 0.0 0.10 1.91 1.91 97 1013.9
20260505063113 1 0 0.0 0.0 0.10 1.91 1.91 97 1013.8
20260505062556 1 0 0.0 0.0 0.08 1.88 1.88 97 1013.9
20260505062056 1 0 0.0 0.0 0.10 1.88 1.88 97 1013.9
20260505061558 1 0 0.0 1.6 0.10 1.88 1.88 97 1014.0
20260505061056 1 0 0.0 1.6 0.10 1.88 1.88 97 1014.0
20260505060557 1 0 0.0 0.0 0.08 1.85 1.85 97 1013.9
20260505060059 1 0 0.0 0.0 0.10 1.85 1.85 97 1014.1
20260505055557 1 0 0.0 0.0 0.10 1.85 1.85 97 1014.1
20260505055057 1 0 0.0 0.0 0.08 1.83 1.83 97 1014.2
20260505054609 1 0 0.0 0.0 0.08 1.83 1.83 97 1014.2
20260505054057 1 0 0.0 0.0 0.10 1.83 1.83 97 1014.1
20260505053556 1 0 0.0 0.0 0.08 1.80 1.80 97 1014.1
20260505053102 1 0 0.0 0.0 0.08 1.80 1.80 97 1014.2
20260505052556 1 0 0.0 0.0 0.10 1.80 1.80 97 1014.3
20260505052056 1 0 0.0 0.0 0.08 1.78 1.78 97 1014.3
20260505051556 1 0 0.0 0.0 0.10 1.78 1.78 97 1014.2
20260505051057 1 0 0.0 0.0 0.10 1.78 1.78 97 1014.4
20260505050556 1 0 0.0 0.0 0.13 1.78 1.78 97 1014.4
20260505041559 0 0 0.0 0.0 0.10 1.68 1.68 96 1014.3
20260505041059 0 0 0.0 0.0 0.13 1.68 1.68 96 1014.3
20260505040600 0 0 0.0 0.0 0.10 1.65 1.65 96 1014.3
20260505040058 0 0 0.0 0.0 0.08 1.63 1.63 97 1014.4
20260505035557 0 0 0.0 0.0 0.08 1.63 1.63 96 1014.2
20260505035059 0 0 0.0 0.0 0.10 1.63 1.63 96 1014.1
20260505034554 0 0 0.0 0.0 0.10 1.63 1.63 96 1013.7
20260505034059 0 0 0.0 0.0 0.08 1.60 1.60 96 1013.9
20260505033600 0 0 0.0 0.0 0.08 1.60 1.60 96 1014.4
20260505033056 0 0 0.0 0.0 0.08 1.60 1.60 96 1014.4
20260505032556 0 0 0.0 0.0 0.05 1.57 1.57 96 1014.2
20260505032055 0 0 0.0 1.6 0.05 1.57 1.57 96 1014.2
20260505031605 0 0 0.0 1.6 0.05 1.57 1.57 96 1014.3
20260505031057 0 0 0.0 1.6 0.03 1.55 1.55 96 1014.2
20260505030556 0 0 0.0 0.0 0.03 1.55 1.55 96 1014.2
20260505030103 0 0 0.0 0.0 0.05 1.55 1.55 96 1014.3